Flag for Germany Weather past 2 weeks in Erding, Bavaria, Germany

Now
61 °F

Broken clouds.


Feels Like: 61 °F
Forecast: 49 / 62 °F
Wind: 2 mph from North

Location: Munich / Franz Josef Strauss Airport

Current Time: May 23, 2015 at 5:04:23 PM

Latest Report: May 23, 2015 at 4:20 PM


Visibility: N/A

Pressure: 30.04 "Hg

Humidity: 52%

Dew point: 43 °F

Location of ErdingLocation

Historic Weather in Erding — Graph

°F

Erding temperature yesterday

Maximum temperature yesterday: 59 °F (at 2:50 PM)
Minimum temperature yesterday: 43 °F (at 4:20 AM)
Average temperature yesterday: 51 °F

Past Weeks' High & Low Weather Summary

 TemperatureHumidityPressure
High81 °F (May 12, 3:50 PM)100% (May 11, 5:20 AM)30.36 "Hg (May 11, 5:20 AM)
Low41 °F (May 11, 5:20 AM)28% (May 12, 4:20 PM)29.74 "Hg (May 18, 7:50 PM)
Average57 °F76%30.09 "Hg
* Reported May 8 3:20 PM — May 23 3:50 PM, Erding, Weather by CustomWeather, © 2015

Note: Actual official high and low records may vary slightly from our data, if they occured in-between our weather recording intervals... More about our weather records

Advertising

Erding weather history for previous 24 hours

 ConditionsComfort  
Time TempWeatherWind HumidityBarometerVisibility
3:50 PM
Sat, May 23
61 °FPartly sunny.1 mph45%30.04 "HgN/A
3:20 PM61 °FPartly sunny.6 mph48%30.04 "HgN/A
2:50 PM61 °FPartly sunny.5 mph48%30.04 "HgN/A
2:20 PM59 °FPartly sunny.6 mph59%30.04 "HgN/A
1:50 PM59 °FBroken clouds.2 mph55%30.07 "HgN/A
1:20 PM57 °FBroken clouds.2 mph67%30.07 "HgN/A
12:50 PM57 °FBroken clouds.1 mph59%30.07 "HgN/A
12:20 PM57 °FBroken clouds.2 mph63%30.07 "HgN/A
11:50 AM57 °FBroken clouds.5 mph67%30.09 "HgN/A
11:20 AM55 °FBroken clouds.3 mph67%30.09 "HgN/A
10:50 AM54 °FBroken clouds.3 mph77%30.09 "HgN/A
10:20 AM54 °FSunny.2 mph77%30.09 "Hg10 mi
9:50 AM54 °FSunny.2 mph77%30.09 "Hg10 mi
9:20 AM52 °FSunny.2 mph82%30.09 "Hg10 mi
8:50 AM52 °FSunny.1 mph82%30.09 "Hg10 mi
8:20 AM52 °FSunny.1 mph77%30.09 "Hg10 mi
7:50 AM50 °FSunny.1 mph82%30.09 "Hg10 mi
7:20 AM50 °FSunny.2 mph82%30.09 "Hg10 mi
6:50 AM50 °FSunny.2 mph82%30.09 "Hg10 mi
6:20 AM48 °FClear.2 mph87%30.09 "Hg10 mi
5:50 AM48 °FClear.2 mph87%30.09 "Hg10 mi
5:20 AM48 °FClear.2 mph87%30.09 "Hg6 mi
4:50 AM46 °FClear.3 mph93%30.09 "Hg5 mi
4:20 AM46 °FClear.3 mph93%30.12 "Hg5 mi
3:50 AM46 °FClear.2 mph93%30.12 "Hg10 mi
3:20 AM45 °FClear.1 mph93%30.12 "Hg10 mi
2:50 AM46 °FClear.3 mph87%30.12 "Hg10 mi
2:20 AM46 °FClear.3 mph93%30.15 "Hg10 mi
1:50 AM46 °FPassing clouds.3 mph87%30.15 "HgN/A
1:20 AM48 °FPassing clouds.3 mph87%30.15 "HgN/A
12:50 AM50 °FClear.3 mph82%30.15 "Hg10 mi
12:20 AM50 °FClear.3 mph88%30.15 "Hg10 mi
11:50 PM
Fri, May 22
50 °FClear.5 mph88%30.18 "Hg10 mi
11:20 PM50 °FPassing clouds.5 mph88%30.18 "HgN/A
10:50 PM52 °FClear.3 mph82%30.18 "Hg10 mi
10:20 PM52 °FPassing clouds.5 mph88%30.18 "HgN/A
9:50 PM52 °FSunny.5 mph88%30.18 "Hg10 mi
9:20 PM54 °FSunny.8 mph82%30.18 "Hg10 mi
8:50 PM54 °FSunny.6 mph82%30.18 "Hg10 mi
8:20 PM54 °FSunny.5 mph77%30.18 "Hg10 mi
7:50 PM55 °FBroken clouds.5 mph72%30.18 "HgN/A
7:20 PM55 °FPartly sunny.7 mph72%30.18 "HgN/A
6:50 PM55 °FPartly sunny.10 mph77%30.18 "HgN/A
6:20 PM57 °FBroken clouds.7 mph59%30.18 "HgN/A
5:50 PM57 °FBroken clouds.7 mph48%30.18 "HgN/A
5:20 PM59 °FPassing clouds.7 mph48%30.18 "HgN/A
Weather by CustomWeather, © 2015

See weather overviewHow to use our weather pages